This is the latest recevied weather packets stored in our database for station/object KM5R. If no packets are shown the sender has not sent any weather packets the latest 1 day(s).
| Time | Temp. | Humidity | Pressure | Rain* | Wind** | Luminosity | Snow |
|---|---|---|---|---|---|---|---|
| 1778002940 | 28.33° C | 62% | 1009.1 hPa | 0 mm | 3.58 m/s, 206° | 548 W/m² | - |
| 1778002636 | 28.33° C | 63% | 1009 hPa | 0 mm | 5.36 m/s, 207° | 464 W/m² | - |
| 1778002333 | 28.33° C | 62% | 1009 hPa | 0 mm | 4.02 m/s, 177° | 535 W/m² | - |
| 1778002030 | 27.78° C | 65% | 1008.8 hPa | 0 mm | 1.79 m/s, 219° | 723 W/m² | - |
| 1778001727 | 27.78° C | 66% | 1008.9 hPa | 0 mm | 0.89 m/s, 116° | 494 W/m² | - |
| 1778001426 | 27.78° C | 65% | 1009 hPa | 0 mm | 4.02 m/s, 182° | 463 W/m² | - |
| 1778001124 | 27.22° C | 65% | 1009.2 hPa | 0 mm | 1.79 m/s, 149° | 497 W/m² | - |
| 1778000820 | 27.22° C | 65% | 1009.2 hPa | 0 mm | 3.13 m/s, 190° | 464 W/m² | - |
| 1778000517 | 26.67° C | 67% | 1009.2 hPa | 0 mm | 5.36 m/s, 197° | 554 W/m² | - |
| 1778000228 | 26.67° C | 68% | 1009.1 hPa | 0 mm | 2.68 m/s, 71° | 337 W/m² | - |
| 1777999914 | 26.67° C | 67% | 1009.2 hPa | 0 mm | 3.13 m/s, 183° | 349 W/m² | - |
| 1777999609 | 26.67° C | 67% | 1009.3 hPa | 0 mm | 3.13 m/s, 21° | 716 W/m² | - |
| 1777999307 | 26.67° C | 68% | 1009.3 hPa | 0 mm | 4.02 m/s, 198° | 469 W/m² | - |
| 1777999005 | 26.67° C | 68% | 1009.4 hPa | 0 mm | 2.68 m/s, 187° | 386 W/m² | - |
| 1777998703 | 26.11° C | 68% | 1009.1 hPa | 0 mm | 4.47 m/s, 138° | 439 W/m² | - |
| 1777998400 | 26.67° C | 68% | 1009.3 hPa | 0 mm | 4.02 m/s, 181° | 528 W/m² | - |
| 1777998098 | 26.11° C | 69% | 1009.2 hPa | 0 mm | 1.34 m/s, 61° | 365 W/m² | - |
| 1777997794 | 26.11° C | 69% | 1009.4 hPa | 0 mm | 3.13 m/s, 145° | 490 W/m² | - |
| 1777997492 | 26.11° C | 69% | 1009.3 hPa | 0 mm | 0 m/s | 653 W/m² | - |
| 1777997189 | 26.11° C | 70% | 1009.7 hPa | 0 mm | 1.79 m/s, 158° | 559 W/m² | - |
| 1777996887 | 25.56° C | 70% | 1009.4 hPa | 0 mm | 4.92 m/s, 136° | 323 W/m² | - |
| 1777996582 | 25.56° C | 71% | 1009.3 hPa | 0 mm | 2.24 m/s, 47° | 485 W/m² | - |
| 1777996279 | 26.11° C | 70% | 1009.2 hPa | 0 mm | 1.34 m/s, 262° | 406 W/m² | - |
| 1777995975 | 25.56° C | 71% | 1009 hPa | 0 mm | 3.58 m/s, 203° | 599 W/m² | - |
| 1777995671 | 25.56° C | 71% | 1008.8 hPa | 0 mm | 1.79 m/s, 204° | 492 W/m² | - |
* Rain latest hour (hover to see other rain measurements)
** Current wind speed in m/s (hover to see current wind gust speed)